Regional Weather Roundup
Issued by NWS State College, PA

Current Version | Previous Version | Text Only | Print | Product List | Glossary On
Versions: 1 2 3 4 5 6 7 8 9 10 11 12 13 14 15 16 17 18 19 20 21 22 23 24 25 26 27 28 29 30 31 32 33 34 35 36 37 38 39 40 41 42 43 44 45 46 47 48 49 50
000
ASUS41 KCTP 062110
RWRCTP

REGIONAL WEATHER ROUNDUP
NATIONAL WEATHER SERVICE STATE COLLEGE PA
400 PM EST FRI MAR 06 2015

Note: "fair" indicates few or no clouds below 12,000 feet with no
significant weather and/or obstructions to visibility.

* = STATION THAT DOES NOT REPORT PRECIPITATION /E.G. RAIN...SNOW...ETC/
    THUNDER OR FOG.

PAZ002>004-007>009-013>016-020>023-029>032-062200-
WESTERN PENNSYLVANIA

CITY           SKY/WX    TMP DP  RH WIND       PRES   REMARKS
ERIE           MOSUNNY   21  11  65 W10       30.36F WCI  10
MEADVILLE      MOSUNNY   22   3  44 SW9       30.31F WCI  12
FRANKLIN*      MOSUNNY   21   1  42 S12       30.33F WCI   9
NEW CASTLE     FAIR      24   5  44 SW5       30.37F
BEAVER COUNTY  SUNNY     25   5  42 S8        30.36F
BUTLER*        MOSUNNY   21   5  49 SW9       30.38S WCI  11
PITTSBURGH INT PTSUNNY   22   6  50 SW8       30.37F WCI  12
PITTSBURGH     SUNNY     21   6  52 S10       30.37F HAZE    WCI  10
INDIANA*       SUNNY     19   7  58 W8        30.39F WCI   9
LATROBE        MOSUNNY   19  10  68 SW7       30.41F WCI  10
WASHINGTON CO* SUNNY     23   9  54 SW6       30.39F
$$

PAZ004>006-010>012-017>019-024>028-033>037-041-042-045-046-049>053-062200-
CENTRAL PENNSYLVANIA

CITY           SKY/WX    TMP DP  RH WIND       PRES   REMARKS
BRADFORD       SUNNY     21   0  39 SW6       30.23F WCI  13
DUBOIS         SUNNY     19   1  45 SW12      30.30F WCI   7
CLEARFIELD     MIX PCPN  23   3  42 SW7       30.32F WCI  15
JOHNSTOWN      SUNNY     20   5  52 SW7       30.26F WCI  11
ALTOONA        SUNNY     23   5  46 S3        30.33F
STATE COLLEGE  SUNNY     25   3  39 SW6       30.34F
WILLIAMSPORT   SUNNY     24   3  40 SE6       30.40F
SELINSGROVE    SUNNY     22   3  44 S8        30.43F WCI  12
FT INDIANTOWN  SUNNY     22   4  46 S8        30.42F WCI  12
CAPITAL CITY   SUNNY     22  -4  32 W7        30.45F WCI  13
HARRISBURG     MOSUNNY   22  -2  35 W5        30.45F
YORK           SUNNY     21   0  39 W5        30.44F WCI  15
$$

PAZ038>040-043-044-047-048-054-055-060>062-067>071-062200-
EASTERN PENNSYLVANIA

CITY           SKY/WX    TMP DP  RH WIND       PRES   REMARKS
SCRANTON       SUNNY     24   3  40 W8        30.36F
MOUNT POCONO   MIX PCPN  22  -3  33 SW9       30.27F WCI  12
ALLENTOWN      SUNNY     23   4  44 SW6       30.43F
QUAKERTOWN*    CLEAR     23   5  46 NW3       30.43F
READING        SUNNY     23   4  44 CALM      30.44F
LANCASTER      SUNNY     20   4  50 W7        30.45F WCI  11
COATESVILLE    CLEAR     19   7  58 NW5       30.43F WCI  13
POTTSTOWN      SUNNY     20   4  50 CALM      30.45F
BLUE BELL      SUNNY     25   9  50 CALM      30.44F
DOYLESTOWN     SUNNY     24   8  50 NW3       30.43F
WILLOW GROVE   NOT AVBL
NORTH PHILA    SUNNY     26  14  60 VRB5      30.48F
PHILADELPHIA   SUNNY     25   9  50 S6        30.48F
$$



USA.gov is the U.S. government's official web portal to all federal, state and local government web resources and services.